www.pogodaiklimat.ru

Погода и климат >> Архив погоды >> Аргентина >> Сан-Мартин


ПОГОДА в Сан-Мартине

  • Прогноз погоды в Сан-Мартине
  • Монитор погоды в Сан-Мартине

АРХИВ ПОГОДЫ в Сан-Мартине

Время (UTC), дата Ветер
(напр.,м/с)
 
Видим.   Явления Облачность Т
(С)
Тd
(С)
f
(%)
Тe
(С)
Тes
(С)
Комфортность P
(гПа)
Po
(гПа)
Тmin
(С)
Tmax
(С)
R
(мм)
R24
(мм)
S
(см)
00 12.08 штиль 0 15 км ясно +13.7 -4.0 29 +14 +14 1016.4 939.7 +3.7 +21.2
03 12.08 ЮЗ 1 15 км ясно +10.4 -7.6 27 +11 +11 1017.9 942.2
06 12.08 Ю 3 15 км ясно +8.4 -7.3 32 +7 +7 1020.8 945.3
09 12.08 ЮЗ 4 15 км ясно +8.4 -6.0 35 +6 +6 1022.7 947.0
12 12.08 ЮЗ 1 15 км ясно +7.6 -5.3 40 +7 +8 1027.2 950.2 +6.9 +13.7
15 12.08 ЮВ 3 15 км ясно +13.4 -4.6 28 +13 +20 1028.9 952.1
18 12.08 В 1 15 км ясно +15.2 -4.3 26 +16 +26 1027.0 950.4
21 12.08 В 1 15 км ясно +14.6 -4.7 26 +15 +16 1026.4 949.7
00 13.08 штиль 0 15 км ясно +9.5 -1.1 48 +9 +9 1031.0 953.2 +7.6 +16.0
03 13.08 штиль 0 15 км ясно +5.5 -2.6 56 +5 +5 1032.9 955.2
06 13.08 штиль 0 15 км ясно +4.5 -3.3 57 +4 +4 1033.6 956.0
09 13.08 штиль 0 15 км ясно +2.7 -3.3 65 +2 +2 1033.2 955.3
12 13.08 ЮЗ 1 15 км ясно +1.6 -4.3 65 0 +1 1034.7 955.8 +0.2 +9.5
15 13.08 ЮВ 1 15 км 3/0
[Ci fib]
+10.8 -0.8 45 +11 +20 1033.6 955.4
18 13.08 СВ 1 15 км 4/0
[Ci fib]
+14.2 -3.0 30 +15 +24 1029.7 952.1
21 13.08 С 3 15 км 6/0
[Cs]
+14.0 -3.0 31 +14 +14 1028.8 951.2
00 14.08 штиль 0 15 км 3/0
[Cs]
+8.2 -1.4 51 +8 +8 1029.9 951.3 +1.6 +15.5
03 14.08 штиль 0 15 км ясно +4.2 -1.7 65 +4 +4 1028.3 950.4
06 14.08 штиль 0 15 км ясно +2.8 -2.8 67 +2 +2 1025.5 948.1
09 14.08 штиль 0 15 км мгла ясно +1.4 -2.6 75 +1 +1 1023.9 946.4
12 14.08 ЮЗ 1 15 км 8/0
[Cs]
+2.0 -3.8 65 +1 +1 1024.8 946.5 -0.5 +8.2
15 14.08 СВ 4 15 км 8/0
[Cs]
+11.0 -1.2 43 +9 +14 1022.7 945.2
18 14.08 СВ 4 15 км 5/0
[Cs]
+16.2 +0.3 34 +16 +21 1017.4 940.9
21 14.08 СВ 4 15 км 10/0
[Cs]
+16.1 -0.6 32 +15 +16 1016.2 939.6
00 15.08 штиль 0 15 км ясно +9.2 -0.6 50 +9 +9 1018.3 940.8 +2.0 +17.2
03 15.08 штиль 0 15 км ясно +6.2 -0.7 61 +6 +6 1018.4 941.6
06 15.08 штиль 0 15 км 8/0
[Cs]
+4.0 -1.0 70 +3 +3 1018.1 941.7
09 15.08 штиль 0 15 км 8/0
[Cs]
+2.8 -2.8 67 +2 +2 1018.6 942.0
12 15.08 штиль 0 15 км 10/0
[Cs]
+3.4 -2.4 66 +3 +3 1019.5 942.0 +1.3 +9.2
15 15.08 штиль 0 15 км 9/0
[Cs]
+13.6 +0.6 41 +14 +23 1017.8 941.3
18 15.08 штиль 0 15 км ясно +18.6 +0.8 30 +19 +31 опасность
простуды
1015.0 939.2
21 15.08 штиль 0 15 км 6/0
[Ci]
+19.0 +1.5 31 +19 +20 1014.4 938.4
00 16.08 штиль 0 15 км ясно +10.7 +1.8 54 +10 +10 1016.8 939.7 +3.4 +20.0
03 16.08 штиль 0 15 км ясно +7.2 +1.2 66 +7 +7 1015.2 939.0
06 16.08 штиль 0 15 км 3/0
[Ci fib]
+6.0 -2.2 56 +6 +6 1013.0 937.6
09 16.08 штиль 0 15 км ясно +4.7 -3.3 56 +4 +4 1011.5 936.1
12 16.08 ЮЗ 1 15 км 5/0
[Cs]
+5.2 -2.3 58 +4 +5 1013.0 936.4 +3.6 +10.7
15 16.08 Ю 1 15 км 5/0
[Cs]
+15.2 +0.9 38 +16 +25 1011.4 935.7
18 16.08 В 1 15 км ясно +20.4 +1.3 28 +22 +32 комфорт 1007.7 932.8
21 16.08 ЮВ 1 15 км ясно +19.8 -0.5 26 +21 +22 комфорт 1008.0 932.8
00 17.08 Ю 1 15 км ясно +13.9 +2.0 44 +14 +14 1009.8 933.8 +5.2 +21.6
03 17.08 ЮЗ 1 15 км ясно +11.0 -0.5 45 +11 +11 1009.6 934.6
06 17.08 ЮЗ 3 15 км ясно +9.2 -1.6 47 +8 +8 1011.0 936.2
09 17.08 ЮЗ 3 15 км 1/0
[Ci fib]
+7.5 -1.1 54 +5 +5 1011.8 936.8
12 17.08 штиль 0 15 км 3/0
[Cs]
+7.2 -0.9 56 +7 +8 1014.4 938.4 +6.2 +13.9
15 17.08 Ю 1 15 км 1/0
[Ci fib]
+17.2 +1.6 35 +18 +28 1013.9 938.8
18 17.08 ЮВ 1 15 км 1/0
[Ci fib]
+20.7 +1.2 27 +22 +32 комфорт 1011.5 936.8
21 17.08 штиль 0 15 км 1/0
[Ci fib]
+19.1 -1.2 25 +19 +20 1012.6 937.4
00 18.08 штиль 0 15 км ясно +14.1 -0.9 36 +14 +14 1016.6 940.4 +7.2 +21.3
03 18.08 ЮВ 1 15 км ясно +10.5 -3.9 36 +11 +11 1018.0 942.5
06 18.08 ЮЗ 3 15 км 3/0
[Ac und]
+9.0 -3.0 43 +7 +7 1019.6 944.2
09 18.08 ЮЗ 3 15 км 1/0
[Ac und]
+8.0 -1.7 50 +6 +6 1021.3 945.4
12 18.08 штиль 0 15 км ясно +9.0 +0.4 55 +9 +10 1024.9 948.4 +7.2 +14.1
15 18.08 Ю 1 15 км 3/0
[Cs]
+12.1 +1.4 48 +12 +22 1026.1 949.4
18 18.08 Ю 7 15 км 9/8 1200 м
[Sc Cs]
+9.8 +2.3 60 +6 +7 1025.8 948.6
21 18.08 Ю 4 15 км 10/10 1200 м
[Sc]
+7.6 +3.3 74 +4 +4 1026.1 948.5

 

Местоположение метеостанции Сан-Мартин (Аргентина): широта -33.08 долгота -68.41 высота над уровнем моря 653 м.

В архиве по умолчанию представлена погода в Сан-Мартине за последнюю неделю. Архивные данные за месяц целиком и за предыдущие месяцы, начиная с января 2011 года, Вы можете получить, выбрав интересующий диапазон дат из раскрывающегося списка и нажав кнопку "Ввод!".


*Определитесь, кто Вы:
робот инопланетянин человек

Внимание! Время в таблицах - всемирное. Для получения местного времени необходимо прибавить поправку, которая равна -3 ч.

Смотрите также архив погоды в соседних городах и на ближайших метеорологических станциях:

Погода в Мендосе (Аргентина) (44 км)
Погода на Пасо Лос Либертадорес (Чили) (162 км)
Погода в Сан-Рафаэле (Аргентина) (167 км)
Погода в Сан-Хуане (Аргентина) (187 км)
Погода в Сан-Хосе-де-Майпо (Чили) (190 км)
Погода в Сан-Луисе (Аргентина) (193 км)
Погода в Сантьяго Агуас Андинас (Чили) (206 км)
Погода в Сантьяго (Чили) (215 км)
Погода в Ло-Пинто (Чили) (217 км)
Погода в Пудауэле (Чили) (223 км)

Пояснения к столбцам:

Ветер - указаны скорость ветра в м/с - средняя за 10 мин, порывы в срок и между сроками (в фигурных скобках) и направление, откуда дует ветер: С - северный, СВ - северо-восточный, В - восточный, ЮВ - юго-восточный, Ю - южный, ЮЗ - юго-западный, З - западный, СЗ - северо-западный.
Видимость - горизонтальная дальность видимости в метрах или километрах. При видимости от 1 до 10 км при отсутствии осадков обычно наблюдается дымка, при ухудшении видимости до 1 км и менее - туман. В сухую погоду видимость может ухудшаться дымом, пылью или мглою.
Явления - указаны атмосферные явления, наблюдавшиеся в срок или в последний час перед сроком; фигурными скобками обозначены явления, наблюдавшиеся между сроками (за 1-3 часа до срока); квадратными скобками обозначены град или гололедные отложения с указанием их диаметра в мм.
Облачность - указаны через наклонную черту общая и нижняя облачность в баллах и высота нижней границы облаков в метрах; квадратными скобками обозначены формы облаков: Ci - перистые, Cs - перисто-слоистые, Cc - перисто-кучевые, Ac - высококучевые, As - высокослоистые, Sc - слоисто-кучевые, Ns - слоисто-дождевые, Cu - кучевые, Cb - кучево-дождевые. Подробнее классификацию облаков см. в Атласе облаков (PDF).
T - Температура воздуха - температура, измеренная на высоте 2 м над землей.
Td - Температура точки росы - температура, при понижении до которой содержащийся в воздухе водяной пар достигнет насыщения.
f - Относительная влажность воздуха - влажноcть воздуха, измеренная на высоте 2 м над землей.
Te - Эффективная температура - температура, которую ощущает одетый по сезону человек в тени. Характеристика душности погоды. При расчете учитывается влияние влажности воздуха и скорости ветра на теплоощущения человека.
Tes - Эффективная температура на солнце - температура, которую ощущает человек, с поправкой на солнечный нагрев. Характеристика знойности погоды. Зависит от высоты солнца над горизонтом, облачности и скорости ветра. Ночью, в пасмурную погоду, а также при ветре 12 м/с и более поправка равна нулю.
P - Атмосферное давление - приведенное к уровню моря атмосферное давление.
Po - Атмосферное давление - измеренное на уровне метеостанции атмосферное давление.
Tmin - Минимальная температура - минимум температуры воздуха на высоте 2 м над землей.
Tmax - Максимальная температура - максимум температуры воздуха на высоте 2 м над землей.
R - Количество осадков - Количество выпавших осадков за период времени, мм. При наведении курсора мыши на число - период времени, за который выпало указанное количество осадков.
R24 - Количество осадков - Количество выпавших осадков за 24 часа, мм.
S - Снежный покров - Высота снежного покрова, см. При наведении курсора мыши на число - состояние снежного покрова и степень покрытия местности в баллах.